Racecast

SEC Championship

Hudson Mills Metropark - OFFICIAL · 5000m · Girls · Compiled · MI

268 runners from 3 divisions

These divisions were run separately. This is how their times compare, not how they finished — the places and scores below were never contested.

View full meet →

Team scores

Place Team Points 12345 67
1 Ann Arbor Pioneer (MI) 21 1 3 4 6 7 15 42
2 Saline (MI) 64 2 10 13 16 23 27 28
3 Temperance Bedford (MI) 66 5 11 14 17 19 21 40
4 Tecumseh (MI) 108 12 18 20 26 32 39 58
5 Ann Arbor Huron (MI) 166 8 36 37 38 47 49 78
6 Ann Arbor Skyline (MI) 186 9 35 41 50 51 53 57
7 Ypsilanti Lincoln (MI) 208 25 34 43 45 61 64 71
8 Chelsea (MI) 226 31 33 44 48 70 74 75
9 Dexter (MI) 264 22 52 54 67 69 72 76
10 Monroe (MI) 276 30 55 56 62 73 81 82
11 Jackson (MI) 288 29 60 65 66 68 77 84
12 Pinckney (MI) 309 24 59 63 80 83 85 86
13 Adrian (MI) 399 46 79 87 93 94
14 Ypsilanti Community (MI) 450 88 89 90 91 92

Results

Place Athlete Grade School Time Rating Points Actual race
1 Zofia Dudek 12 Ann Arbor Pioneer (MI) 1 17:09.4 143.9 1 1
2 Madison Wood 10 Saline (MI) 1 18:03.4 136.7 2 2
3 Sarah Forsyth 10 Ann Arbor Pioneer (MI) 2 18:04.8 136.6 3 3
4 Cookie Baugh 10 Ann Arbor Pioneer (MI) 3 18:55.5 130.5 4 4
5 Isabella Johnson 12 Temperance Bedford (MI) 1 19:04.2 129.5 5 5
6 Charlotte Batra 10 Ann Arbor Pioneer (MI) 4 19:22.2 127.5 6 6
7 Anna Vogel 12 Ann Arbor Pioneer (MI) 5 19:23.0 127.4 7 7
8 Samantha Hastie 11 Ann Arbor Huron (MI) 1 19:26.3 127.0 8 8
9 Laura O'Brien 11 Ann Arbor Skyline (MI) 1 19:27.1 126.9 9 9
10 Madison Stern 10 Saline (MI) 2 19:27.6 126.9 10 10
11 Ally Betkey 9 Temperance Bedford (MI) 2 19:37.1 125.8 11 11
12 Kaitlin Knape 11 Tecumseh (MI) 1 19:40.3 125.5 12 1
13 Nicole Dillmann 12 Saline (MI) 3 19:41.9 125.3 13 12
14 Alyssa Dorn 11 Temperance Bedford (MI) 3 19:42.6 125.3 14 13
15 Anna Dudek 11 Ann Arbor Pioneer (MI) 6 19:45.2 125.0 15 14
16 Claire Endres 10 Saline (MI) 4 19:47.2 124.8 16 15
17 Makayla Orner 12 Temperance Bedford (MI) 4 19:52.7 124.2 17 16
18 Chesney Wilke 9 Tecumseh (MI) 2 19:57.7 123.7 18 2
19 Sydney Dec 9 Temperance Bedford (MI) 5 20:01.2 123.3 19 17
20 Kaylee Pesta 9 Tecumseh (MI) 3 20:04.1 123.0 20 3
21 Madison Foster 10 Temperance Bedford (MI) 6 20:09.9 122.4 21 18
22 Sophia Grant 12 Dexter (MI) 1 20:10.9 122.3 22 4
23 Ella Woehlke 12 Saline (MI) 5 20:15.0 121.9 23 19
24 Nyla Griffin 11 Pinckney (MI) 1 20:21.4 121.3 24 5
25 Caroline Stone 11 Ypsilanti Lincoln (MI) 1 20:22.2 121.2 25 6
26 Isabelle Brigman 12 Tecumseh (MI) 4 20:27.5 120.7 26 7
27 Katelyn Szafranski 12 Saline (MI) 6 20:28.9 120.5 27 20
28 Jenna Allman 12 Saline (MI) 7 20:29.4 120.5 28 1
29 Jadyn Elliott 11 Jackson (WA) 1 20:32.9 120.2 29 8
30 Bridgette Dudley 10 Monroe (CA) 1 20:33.9 120.1 30 21
31 Audra Guthre 9 Chelsea (MI) 1 20:34.5 120.0 31 9
32 Aubrey Stager 9 Saline (MI) 8 20:35.4 119.9 2
33 Kelsey Knape 9 Tecumseh (MI) 5 20:36.4 119.8 32 10
34 Lydia Alig 10 Saline (MI) 9 20:36.9 119.8 3
35 Ashley Desimone 12 Saline (MI) 10 20:37.9 119.7 4
36 Natalie Davies 11 Chelsea (MI) 2 20:40.0 119.5 33 11
37 Grace Bogdanski 11 Ypsilanti Lincoln (MI) 2 20:47.8 118.7 34 12
38 Catrin Koselka 11 Ann Arbor Skyline (MI) 2 20:49.1 118.6 35 22
39 Haley Greene 12 Saline (MI) 11 20:51.8 118.3 23
40 Royce Smith 9 Ann Arbor Huron (MI) 2 20:53.2 118.2 36 24
41 Mia Solomon 9 Ann Arbor Huron (MI) 3 20:54.5 118.1 37 25
42 Rachel Overgaard 9 Ann Arbor Huron (MI) 4 20:54.7 118.1 38 26
43 Bailey Fraker 11 Tecumseh (MI) 6 20:59.7 117.6 39 13
44 Emma Bushroe 9 Temperance Bedford (MI) 7 21:01.3 117.5 40 5
45 Rebekah Asselin 9 Temperance Bedford (MI) 8 21:01.9 117.4 27
46 Arielle Melong 12 Ann Arbor Skyline (MI) 3 21:03.4 117.2 41 28
47 Jillian Falzone 12 Temperance Bedford (MI) 9 21:03.5 117.2 6
48 Danielle Armstrong 12 Ann Arbor Pioneer (MI) 7 21:06.7 117.0 42 29
49 Rylie Scharlach 12 Ypsilanti Lincoln (MI) 3 21:07.6 116.9 43 14
50 Emily Chizek 12 Chelsea (MI) 3 21:08.4 116.8 44 15
51 Sienna Schotten 10 Ypsilanti Lincoln (MI) 4 21:10.7 116.6 45 16
52 Crystal Coyne 11 Adrian (MI) 1 21:12.1 116.5 46 17
53 Helena Helme 12 Ann Arbor Huron (MI) 5 21:13.0 116.4 47 30
54 Ava Ignacio 11 Saline (MI) 12 21:14.7 116.2 7
55 Kate Gaiser 10 Chelsea (MI) 4 21:18.0 115.9 48 18
56 Katrina Beardsley 12 Ann Arbor Pioneer (MI) 8 21:18.9 115.8 8
57 Dana Decan 10 Ann Arbor Huron (MI) 6 21:20.0 115.7 49 31
58 Jenny Cantrell 12 Saline (MI) 13 21:20.6 115.7 9
59 Madeline Heinrichs 10 Temperance Bedford (MI) 10 21:21.7 115.6 10
60 Mara Mueting 12 Ann Arbor Skyline (MI) 4 21:21.7 115.6 50 32
61 Caitlyn Donnelly 10 Ann Arbor Skyline (MI) 5 21:22.6 115.5 51 33
62 Abigail Fox 11 Dexter (MI) 2 21:23.2 115.4 52 19
63 Lydia Cocciolone 9 Ann Arbor Skyline (MI) 6 21:24.8 115.3 53 34
64 Taylor Forshee 11 Dexter (MI) 3 21:27.8 115.0 54 20
65 Grace Finley 9 Monroe (CA) 2 21:27.9 115.0 55 35
66 Emily Cooper 9 Ann Arbor Pioneer (MI) 9 21:32.8 114.6 11
67 Katelyn Dec 9 Temperance Bedford (MI) 11 21:34.9 114.4 12
68 Morgan Kay 9 Monroe (CA) 3 21:35.7 114.3 56 36
69 Sierra Lubetkin 11 Ann Arbor Skyline (MI) 7 21:35.7 114.3 57 37
70 Kaitlyn Eckermann 10 Saline (MI) 14 21:38.8 114.1 13
71 Sydney Greene 11 Tecumseh (MI) 7 21:39.1 114.0 58 14
72 Emma Moore 10 Pinckney (MI) 2 21:40.2 113.9 59 21
73 Lydia Valtadoros 12 Ann Arbor Pioneer (MI) 10 21:40.4 113.9 15
74 Amanda Lin 10 Saline (MI) 15 21:41.6 113.8 16
75 Lily Moore 11 Jackson (WA) 2 21:44.0 113.6 60 22
76 Erin Dougherty 12 Ypsilanti Lincoln (MI) 5 21:45.1 113.5 61 23
77 Callie Francisco 12 Monroe (CA) 4 21:47.4 113.3 62 38
78 Carina Sanborn 12 Ann Arbor Pioneer (MI) 11 21:54.7 112.7 17
79 Allison Nutt 9 Ann Arbor Pioneer (MI) 12 21:55.5 112.6 18
80 Maekayla Rice 10 Saline (MI) 16 21:56.3 112.5 19
81 Mya Orner 9 Temperance Bedford (MI) 12 21:57.3 112.5 20
82 Marissa Wolschleger 11 Pinckney (MI) 3 22:02.7 112.0 63 24
83 Presley Schmus 11 Temperance Bedford (MI) 13 22:03.9 111.9 21
84 Maggie Schmidt 12 Ann Arbor Skyline (MI) 8 22:04.4 111.8 22
85 Melanie Macias 9 Ypsilanti Lincoln (MI) 6 22:05.5 111.8 64 23
86 Danielle Shemanski 11 Jackson (WA) 3 22:06.4 111.7 65 25
87 Emily Stevenson 9 Tecumseh (MI) 8 22:07.0 111.6 24
88 Emma Abbott 9 Tecumseh (MI) 9 22:09.0 111.5 26
89 Madeline Hood 9 Ann Arbor Pioneer (MI) 13 22:10.4 111.3 25
90 Kate Froedtert 10 Jackson (WA) 4 22:11.3 111.3 66 27
91 Ashley Mitchell 10 Dexter (MI) 4 22:13.1 111.1 67 26
92 Elena Alvarado 11 Jackson (WA) 5 22:13.7 111.1 68 28
93 Megan O'Day 9 Dexter (MI) 5 22:14.5 111.0 69 29
94 Julia Kause 9 Chelsea (MI) 5 22:16.7 110.8 70 30
95 Natalie Kessler 9 Ann Arbor Skyline (MI) 9 22:17.2 110.8 27
96 Sophia Woehlke 10 Saline (MI) 17 22:19.0 110.6 28
97 Paige Hockley 10 Ann Arbor Pioneer (MI) 14 22:20.3 110.5 29
98 Annalise Bailey 12 Ann Arbor Skyline (MI) 10 22:22.6 110.3 30
99 Maya Goncalves 9 Ypsilanti Lincoln (MI) 7 22:23.5 110.3 71 31
100 Analeigh Majewski 11 Temperance Bedford (MI) 14 22:29.0 109.8 32
101 Anne Kleber 9 Dexter (MI) 6 22:31.8 109.6 72 33
102 Chloe Gunter 11 Monroe (CA) 5 22:33.3 109.5 73 39
103 Myranda Montoye 12 Chelsea (MI) 6 22:36.6 109.2 74 34
104 Brooke Matusik 9 Chelsea (MI) 7 22:37.7 109.1 75 31
105 Brynn Richardson 10 Tecumseh (MI) 10 22:37.9 109.1 35
106 Zoe Rumohr 9 Saline (MI) 18 22:37.9 109.1 36
107 Sarah Baybeck 11 Ann Arbor Pioneer (MI) 15 22:38.5 109.0 37
108 Amanda Hubert 12 Dexter (MI) 7 22:38.7 109.0 76 38
109 Quinn Hilla 9 Dexter (MI) 8 22:40.9 108.8 32
110 Amelia Hitchingham 12 Jackson (WA) 6 22:41.6 108.8 77 33
111 Dayna Dec 12 Temperance Bedford (MI) 15 22:46.2 108.4 39
112 Meagan Dougherty 11 Ypsilanti Lincoln (MI) 8 22:46.6 108.4 34
113 Zoe Solomon 11 Ann Arbor Huron (MI) 7 22:50.8 108.1 78 40
114 Gwendolyn Frolich 10 Adrian (MI) 2 22:51.4 108.0 79 35
115 Georgia Jurden 9 Pinckney (MI) 4 22:52.6 107.9 80 36
116 Mara Krupka 10 Ann Arbor Pioneer (MI) 16 22:52.7 107.9 40
117 Claire Stanko 9 Ann Arbor Pioneer (MI) 17 22:52.8 107.9 41
118 Mari Park 10 Ann Arbor Huron (MI) 8 22:52.9 107.9 42
119 Katherine Betz 10 Dexter (MI) 9 22:54.0 107.8 43
120 Jasmine Wisniewski 10 Ypsilanti Lincoln (MI) 9 22:58.8 107.4 37
121 Sarah Kennings 11 Chelsea (MI) 8 22:59.6 107.4 44
122 Paige McCreadie 11 Ann Arbor Pioneer (MI) 18 23:00.6 107.3 45
123 Brooke Wise 10 Temperance Bedford (MI) 16 23:01.0 107.3 46
124 Emma Frederiksen 11 Chelsea (MI) 9 23:03.8 107.0 38
125 Regina Madziar 10 Tecumseh (MI) 11 23:05.5 106.9 47
126 Chloe Sprague 9 Dexter (MI) 10 23:05.7 106.9 39
127 Emma Hodder 11 Dexter (MI) 11 23:07.4 106.8 48
128 Jenny Wolf 12 Saline (MI) 19 23:10.6 106.5 49
129 Emma McCalister 11 Monroe (CA) 6 23:17.4 106.0 81 41
130 Morgan Kurth 12 Chelsea (MI) 10 23:18.0 106.0 50
131 Kris Tuttle 9 Saline (MI) 20 23:18.7 105.9 51
132 Karly Bundon 9 Monroe (CA) 7 23:21.0 105.7 82 42
133 Grace Jackel 11 Ann Arbor Pioneer (MI) 19 23:25.5 105.4 52
134 Bryanna Kramarczyk 12 Ypsilanti Lincoln (MI) 10 23:29.1 105.1 53
135 Elizabeth Beck 9 Ann Arbor Skyline (MI) 11 23:31.9 104.9 54
136 Kara O'Day 12 Dexter (MI) 12 23:35.2 104.7 55
137 Hannah Menosky 12 Pinckney (MI) 5 23:36.7 104.6 83 40
138 Thea Higgins 12 Chelsea (MI) 11 23:40.4 104.3 56
139 Freya Benson 12 Ann Arbor Pioneer (MI) 20 23:41.1 104.2 57
140 Emma Grill 10 Saline (MI) 21 23:41.3 104.2 58
141 Makenna Lupi 10 Saline (MI) 22 23:41.4 104.2 59
142 Yael Atzmon 11 Ann Arbor Pioneer (MI) 21 23:44.4 104.0 60
143 Autumn Cuthbert 10 Tecumseh (MI) 12 23:46.8 103.8 61
144 Faith Jones 11 Dexter (MI) 13 23:47.1 103.8 41
145 Amanda Xu 10 Ann Arbor Huron (MI) 9 23:48.3 103.7 62
146 Rylie DuBois 9 Jackson (WA) 7 23:49.4 103.6 84 63
147 Grace Shemanski 9 Jackson (WA) 8 23:49.7 103.6 64
148 Lauren Jamsen 11 Ann Arbor Pioneer (MI) 22 23:50.4 103.6 65
149 Joanna Wallace 10 Pinckney (MI) 6 23:52.3 103.4 85 42
150 Tess Carichner 11 Saline (MI) 23 23:52.6 103.4 66
151 Molly Mannor 10 Chelsea (MI) 12 23:52.9 103.4 67
152 Jamie Stout 11 Dexter (MI) 14 23:53.8 103.3 68
153 Lauren Kaus 10 Pinckney (MI) 7 23:56.2 103.2 86 43
154 Naomi Kaczor 9 Ann Arbor Pioneer (MI) 23 24:00.9 102.8 69
155 Emily Ma 9 Ann Arbor Huron (MI) 10 24:02.4 102.7 70
156 Emma Streetman 12 Dexter (MI) 15 24:04.6 102.5 71
157 Rowan Brittain 12 Temperance Bedford (MI) 17 24:18.1 101.6 72
158 Melanie Valtadoros 10 Ann Arbor Pioneer (MI) 24 24:25.3 101.1 73
159 Alex Knapp 11 Temperance Bedford (MI) 18 24:26.0 101.0 74
160 Antonia Bruckman 9 Dexter (MI) 16 24:26.7 101.0 75
161 Melina Sotiropoulos 9 Saline (MI) 24 24:26.9 101.0 76
162 Keely Quinn 10 Saline (MI) 25 24:28.0 100.9 77
163 Yasemin Gunal 12 Ann Arbor Huron (MI) 11 24:28.4 100.9 78
164 Morelia Rosas-Martinez 11 Ann Arbor Huron (MI) 12 24:28.5 100.9 79
165 Mia Sanborn 9 Ann Arbor Pioneer (MI) 25 24:34.3 100.5 80
166 Mallery Bee 12 Chelsea (MI) 13 24:35.9 100.4 81
167 Ella Kennedy-Ashe 12 Chelsea (MI) 14 24:36.9 100.3 82
168 Haley Holm 11 Chelsea (MI) 15 24:36.9 100.3 83
169 Cedar Hughes 10 Chelsea (MI) 16 24:37.9 100.2 84
170 Lauren Sancrant 10 Temperance Bedford (MI) 19 24:38.8 100.2 85
171 Sonia Glab 12 Ann Arbor Pioneer (MI) 26 24:39.2 100.2 86
172 Kelsey Weinreich 12 Chelsea (MI) 17 24:39.4 100.1 87
173 Elena Bowman 10 Ann Arbor Pioneer (MI) 27 24:41.5 100.0 88
174 Sydney Mertens 12 Ypsilanti Lincoln (MI) 11 24:41.9 100.0 89
175 Brooke Fiske 10 Saline (MI) 26 24:43.7 99.8 90
176 Quinn Fowler 10 Monroe (CA) 8 24:46.7 99.6 91
177 Valerie Oz 9 Temperance Bedford (MI) 20 24:47.2 99.6 92
178 Natalie Muenz 9 Ann Arbor Huron (MI) 13 24:48.3 99.5 93
179 Kayla Sweeny 12 Chelsea (MI) 18 24:49.5 99.5 94
180 Makenna Szabo-Menzies 10 Monroe (CA) 9 24:50.1 99.4 95
181 Anna Weaver 12 Saline (MI) 27 24:52.8 99.2 96
182 Audrey Hoffman 11 Ann Arbor Huron (MI) 14 24:54.8 99.1 97
183 Lauryn Pogliano 11 Saline (MI) 28 25:02.4 98.6 98
184 Rukaiyah Hussain 11 Ann Arbor Skyline (MI) 12 25:02.5 98.6 99
185 Tina Sterbova 12 Ann Arbor Skyline (MI) 13 25:03.4 98.5 100
186 Annie Liemohn 11 Saline (MI) 29 25:06.3 98.3 101
187 Matilda Musser 12 Ann Arbor Huron (MI) 15 25:10.1 98.1 102
188 Breana Austin 10 Saline (MI) 30 25:17.5 97.6 103
189 Melia Austin 11 Saline (MI) 31 25:23.0 97.3 104
190 Alexus Baldwin 10 Monroe (CA) 10 25:23.1 97.3 105
191 Abby Anderson 12 Temperance Bedford (MI) 21 25:25.9 97.1 106
192 Maria Portillo 11 Ann Arbor Huron (MI) 16 25:32.0 96.7 107
193 Meredeth Lepper 11 Pinckney (MI) 8 25:38.5 96.3 108
194 Michelle Gallegos 10 Monroe (CA) 11 25:41.6 96.1 109
195 Kristina Dolgacheva 11 Ann Arbor Huron (MI) 17 25:45.2 95.9 110
196 Abigail Walraven 10 Jackson (WA) 9 25:46.1 95.8 111
197 Maya Hitchingham 9 Jackson (WA) 10 25:51.2 95.5 112
198 Amilia Jones 10 Jackson (WA) 11 25:51.8 95.5 113
199 Megan Day 11 Saline (MI) 32 25:56.5 95.2 114
200 Galataya Orozco 9 Adrian (MI) 3 26:02.0 94.8 87 44
201 Hannah Spohn 9 Tecumseh (MI) 13 26:03.7 94.7 115
202 Annie Farrell 11 Saline (MI) 33 26:09.0 94.4 116
203 Cailin Brooks 9 Ypsilanti Lincoln (MI) 12 26:13.2 94.2 117
204 Nyla Hood 10 Ypsilanti Community (MI) 1 26:15.6 94.0 88 45
205 Anastasia Frederick 12 Saline (MI) 34 26:18.3 93.9 118
206 Ella Solomon 11 Ann Arbor Skyline (MI) 14 26:20.4 93.7 119
207 Yoko Miller 9 Ann Arbor Skyline (MI) 15 26:23.2 93.6 120
208 Cede Poskarbiewicz 12 Temperance Bedford (MI) 22 26:24.8 93.5 121
209 Addison Nowak 10 Temperance Bedford (MI) 23 26:24.9 93.5 122
210 Sarah Rosati 10 Saline (MI) 35 26:27.8 93.3 123
211 Rio Ohtake 10 Ann Arbor Huron (MI) 18 26:32.6 93.0 124
212 Taylor Hull 9 Dexter (MI) 17 26:33.0 93.0 125
213 Julia Frank 12 Temperance Bedford (MI) 24 26:34.0 92.9 126
214 Julia Roeth 12 Temperance Bedford (MI) 25 26:34.0 92.9 127
215 Karis Schreck 10 Saline (MI) 36 26:39.8 92.6 128
216 Savannah Simpson 11 Saline (MI) 37 26:42.4 92.5 129
217 Juna Hume-Clark 9 Ypsilanti Community (MI) 2 26:55.6 91.7 89 46
218 Willow Habart 12 Saline (MI) 38 27:02.1 91.3 130
219 Danielle Bryant 11 Ypsilanti Community (MI) 3 27:02.7 91.3 90 47
220 YoungSeo Lee 12 Ann Arbor Huron (MI) 19 27:05.3 91.2 131
221 Katie Schwartz 11 Saline (MI) 39 27:07.7 91.0 132
222 Anna Mueller 9 Saline (MI) 40 27:12.6 90.7 133
223 Katie Farrell 9 Saline (MI) 41 27:12.7 90.7 134
224 Leah Driehorst 11 Temperance Bedford (MI) 26 27:13.6 90.7 135
225 Julia Mei 9 Ann Arbor Skyline (MI) 16 27:16.8 90.5 136
226 Naomi Szabo 11 Saline (MI) 42 27:22.9 90.2 137
227 Emma Driskell 10 Saline (MI) 43 27:26.2 90.0 138
228 Tori Rishel 12 Saline (MI) 44 27:28.1 89.9 139
229 Mary Nguyen 9 Ypsilanti Lincoln (MI) 13 27:30.2 89.8 140
230 Martina Reading-Sunol 9 Ann Arbor Huron (MI) 20 27:39.5 89.3 141
231 Jasmine Smith 9 Ypsilanti Lincoln (MI) 14 27:48.1 88.8 142
232 Hayden Clisham 10 Saline (MI) 45 27:59.3 88.2 143
233 Cordelia Birkholm 12 Saline (MI) 46 28:04.4 88.0 144
234 Breanna Lowery 12 Ypsilanti Community (MI) 4 28:09.4 87.7 91 48
235 Angie Ling 10 Saline (MI) 47 28:11.7 87.6 145
236 Lydia Lee 11 Ann Arbor Huron (MI) 21 28:14.4 87.4 146
237 Natalie Miscikowski 9 Temperance Bedford (MI) 27 28:17.7 87.3 147
238 Lola Boynton 10 Dexter (MI) 18 28:23.3 87.0 148
239 Macie Angeli 12 Ann Arbor Huron (MI) 22 28:30.3 86.6 149
240 Emily Allman 10 Saline (MI) 48 28:32.6 86.5 150
241 Lilly Vreeland 11 Saline (MI) 49 28:33.3 86.5 151
242 April Montoye 11 Chelsea (MI) 19 28:34.9 86.4 152
243 Ashlyn Stager 11 Saline (MI) 50 28:41.9 86.0 153
244 Hailey Hilton 10 Tecumseh (MI) 14 28:48.0 85.7 154
245 Alena Miklosovic 10 Saline (MI) 51 28:55.1 85.4 155
246 Kaitlyn Higgins 12 Saline (MI) 52 29:00.1 85.1 156
247 Riley Wilson 10 Saline (MI) 53 29:08.6 84.7 157
248 Abigail Eller 10 Tecumseh (MI) 15 29:09.2 84.7 158
249 Morgan Boze 11 Saline (MI) 54 29:24.8 83.9 159
250 Madi Speers 10 Saline (MI) 55 29:27.9 83.8 160
251 Katrina Keyser 12 Tecumseh (MI) 16 29:27.9 83.8 161
252 Josie Sullivan 10 Saline (MI) 56 29:31.0 83.7 162
253 Kathryn Rummel 11 Saline (MI) 57 29:31.2 83.6 163
254 Megan Garner 11 Saline (MI) 58 29:39.1 164
255 LaNya Hood 11 Ypsilanti Community (MI) 5 29:54.7 82.5 92 49
256 Hailey Rice 10 Adrian (MI) 4 30:02.1 82.2 93 50
257 Haley Norman 12 Saline (MI) 59 30:02.8 82.2 165
258 Isabella Orozco-Guerro 9 Adrian (MI) 5 30:06.5 82.0 94 51
259 Elizabeth Gibson 11 Monroe (CA) 12 30:30.5 80.9 166
260 Danielle Livorsi 11 Saline (MI) 60 32:27.3 76.1 167
261 Nadya Babushkin 10 Ann Arbor Skyline (MI) 17 32:35.5 75.8 168
262 Caitlin Brooks 10 Saline (MI) 61 33:13.3 74.3 169
263 Sophie Delfuoco 11 Saline (MI) 62 33:14.2 74.3 170
264 Chloe Mondloch 9 Saline (MI) 63 33:19.0 74.1 171
265 Kyler Greatorex 11 Dexter (MI) 19 33:30.9 73.7 172
266 Amber Gerrity 10 Tecumseh (MI) 17 33:44.3 73.2 173
267 Aubrey Newton 10 Ypsilanti Lincoln (MI) 15 33:48.7 73.0 174
268 Abby Martin 12 Dexter (MI) 20 35:14.0 70.1 175